Flag for Namibia Weather past 2 weeks in Walvis Bay, Namibia

Now
50 °F

Cool.


Feels Like: 48 °F
Forecast: 56 / 70 °F
Wind: 6 mph from Northeast

Location: Walvis Bay

Current Time: Aug 23, 2014 at 2:56:24 AM

Latest Report: Aug 23, 2014 at 2:00 AM


Visibility: N/A

Pressure: 30.09 "Hg

Humidity: 94%

Dew point: 48 °F

Location of Walvis BayLocation

Historic Weather in Walvis Bay — Graph

°F

Walvis Bay temperature yesterday

Maximum temperature yesterday: 68 °F (at 3:00 PM)
Minimum temperature yesterday: 43 °F (at 5:00 AM)
Average temperature yesterday: 53 °F

Past Weeks' High & Low Weather Summary

 TemperatureHumidityPressure
High72 °F (Aug 9, 2:00 PM)100% (Aug 8, 7:00 AM)30.45 "Hg (Aug 8, 7:00 AM)
Low43 °F (Aug 8, 4:00 AM)13% (Aug 9, 10:00 AM)29.92 "Hg (Aug 16, 2:00 PM)
Average55 °F76%30.08 "Hg
* Reported Aug 8 1:00 AM — Aug 23 1:00 AM, Walvis Bay, Weather by CustomWeather, © 2014

Note: Actual official high and low records may vary slightly from our data, if they occured in-between our weather recording intervals... More about our weather records

Advertising

Walvis Bay weather history for previous 24 hours

 ConditionsComfort  
Time TempWeatherWind HumidityBarometerVisibility
1:00 AM
Aug 23
50 °FCool.7 mph94%30.12 "HgN/A
12:00 AM50 °FCool.6 mph94%30.12 "HgN/A
11:00 PM
Aug 22
52 °FCool.5 mph88%30.09 "HgN/A
10:00 PM48 °FCool.6 mph87%30.09 "HgN/A
9:00 PM50 °FCool.2 mph88%30.09 "HgN/A
8:00 PM52 °FCool.3 mph82%30.07 "HgN/A
7:00 PM55 °FClear.6 mph77%30.07 "Hg10 mi
6:00 PM59 °FCool.6 mph63%30.04 "HgN/A
5:00 PM63 °FMild.6 mph56%30.04 "HgN/A
4:00 PM66 °FPassing clouds.7 mph46%30.01 "HgN/A
3:00 PM68 °FPassing clouds.7 mph43%30.01 "HgN/A
2:00 PM64 °FPassing clouds.8 mph52%30.04 "HgN/A
1:00 PM64 °FScattered clouds.7 mph52%30.07 "HgN/A
12:00 PM63 °FMild.6 mph56%30.07 "HgN/A
11:00 AM61 °FScattered clouds.6 mph59%30.09 "HgN/A
10:00 AM57 °FScattered clouds.5 mph63%30.12 "HgN/A
8:00 AM50 °FPartly sunny.2 mph76%30.09 "HgN/A
7:00 AM43 °FPartly sunny.2 mph87%30.07 "HgN/A
6:00 AM43 °FSunny.6 mph87%30.07 "Hg10 mi
5:00 AM43 °FClear.7 mph93%30.04 "Hg10 mi
4:00 AM45 °FQuite cool.8 mph87%30.04 "HgN/A
3:00 AM45 °FQuite cool.8 mph87%30.07 "HgN/A
2:00 AM45 °FQuite cool.8 mph87%30.07 "HgN/A
Weather by CustomWeather, © 2014

See weather overviewHow to use our weather pages